Logan, UT

9:59 PM MST on February 12, 2016 (GMT -0700)
Logan-Cache

Weather History for KLGU - October, 2012

Change the Weather History Date:

Monday, October 1, 2012

  Actual Average Record
Temperature  
Mean Temperature 60 °F -  
Max Temperature 80 °F 71 °F 88 °F (2010)
Min Temperature 39 °F 38 °F 25 °F (1985)
Degree Days  
Heating Degree Days 6    
Growing Degree Days 10 (Base 50)    
Moisture  
Dew Point 36 °F    
Average Humidity 51    
Maximum Humidity 82    
Minimum Humidity 17    
Precipitation  
Precipitation 0.00 in - - ()
Sea Level Pressure  
Sea Level Pressure 30.17 in    
Wind  
Wind Speed 2 mph (NNW)    
Max Wind Speed 5 mph    
Max Gust Speed -    
Visibility 10 miles    
Events      
Averages and records for this station are not official NWS values.
T = Trace of Precipitation, MM = Missing Value Source: NWS Daily Summary

Daily Weather History Graph

Daily Weather History Graph

Search for Another Location

Airport or City:

Trip Planner

Search our weather history database for the weather conditions in past years. The results will help you decide how hot, cold, wet, or windy it might be!

Date:

Astronomy

Oct. 01, 2012 Rise Set
Actual Time 7:24 AM MDT 7:08 PM MDT
Civil Twilight 6:57 AM MDT 7:35 PM MDT
Nautical Twilight 6:24 AM MDT 8:08 PM MDT
Astronomical Twilight 5:52 AM MDT 8:40 PM MDT
Moon 7:44 PM MDT (10/1) 9:00 AM MDT (10/1)
Length of Visible Light 12h 38m
Length of Day
11h 43m
Full, 97% of the Moon is Illuminated
Oct 1
Full
Oct 8
Last Quarter
Oct 15
New
Oct 21
First Quarter
Oct 29
Full

Hourly Weather History & Observations

Time (MDT) Temp. Windchill Dew Point Humidity Pressure Visibility Wind Dir Wind Speed Gust Speed Precip Events Conditions
12:51 AM 50.0 °F - 36.0 °F 59% 30.17 in 10.0 mi Calm Calm - N/A   Clear
1:51 AM 46.0 °F 44.8 °F 37.0 °F 71% 30.18 in 10.0 mi NNE 3.5 mph - N/A   Clear
2:51 AM 46.0 °F 44.8 °F 39.0 °F 76% 30.19 in 10.0 mi NNW 3.5 mph - N/A   Clear
3:51 AM 46.0 °F - 36.0 °F 68% 30.19 in 10.0 mi Calm Calm - N/A   Clear
4:51 AM 42.1 °F - 35.1 °F 76% 30.20 in 10.0 mi Calm Calm - N/A   Clear
5:51 AM 42.1 °F 39.2 °F 34.0 °F 73% 30.20 in 10.0 mi NNE 4.6 mph - N/A   Clear
6:51 AM 42.1 °F 40.2 °F 36.0 °F 79% 30.22 in 10.0 mi West 3.5 mph - N/A   Clear
7:51 AM 39.0 °F - 34.0 °F 82% 30.27 in 10.0 mi Calm Calm - N/A   Clear
8:51 AM 46.9 °F - 37.0 °F 68% 30.27 in 9.0 mi Calm Calm - N/A   Clear
9:51 AM 55.0 °F - 39.0 °F 55% 30.27 in 10.0 mi Calm Calm - N/A   Clear
10:51 AM 60.1 °F - 37.0 °F 42% 30.24 in 10.0 mi Calm Calm - N/A   Clear
11:51 AM 64.9 °F - 34.0 °F 32% 30.23 in 10.0 mi Variable 4.6 mph - N/A   Clear
12:51 PM 71.1 °F - 34.0 °F 26% 30.19 in 10.0 mi Variable 4.6 mph - N/A   Clear
1:51 PM 73.0 °F - 33.1 °F 23% 30.17 in 10.0 mi Variable 3.5 mph - N/A   Clear
2:51 PM 75.9 °F - 32.0 °F 20% 30.13 in 10.0 mi Variable 3.5 mph - N/A   Clear
4:51 PM 80.1 °F - 30.9 °F 17% 30.09 in 10.0 mi Calm Calm - N/A   Clear
5:51 PM 78.1 °F - 33.1 °F 19% 30.07 in 10.0 mi South 3.5 mph - N/A   Clear
6:51 PM 73.9 °F - 37.0 °F 26% 30.07 in 10.0 mi SW 4.6 mph - N/A   Clear
7:51 PM 64.0 °F - 37.9 °F 38% 30.09 in 10.0 mi Calm Calm - N/A   Clear
8:51 PM 60.1 °F - 37.9 °F 44% 30.09 in 10.0 mi Calm Calm - N/A   Clear
9:51 PM 51.1 °F - 37.9 °F 61% 30.09 in 10.0 mi NW 3.5 mph - N/A   Clear
11:51 PM 48.9 °F - 35.1 °F 59% 30.07 in 10.0 mi ENE 3.5 mph - N/A   Clear